| time (UTC) | temp F | wind direction | speed MPH | gust MPH | rain 1hr in | rain 24hr in | rain mn in | humidity % | barometer mb |
| 20260905144546 | 49 | 247 | 5.0 | 15.0 | 0.00 | 0.00 | 0.00 | 43 | 1009.0 |
| 20260905143041 | 49 | 284 | 6.0 | 19.0 | 0.00 | 0.00 | 0.00 | 45 | 1009.0 |
| 20260905141540 | 48 | 273 | 7.0 | 23.0 | 0.00 | 0.00 | 0.00 | 48 | 1008.7 |
| 20260905140045 | 47 | 241 | 7.0 | 23.0 | 0.00 | 0.00 | 0.00 | 48 | 1008.3 |
| 20260905134541 | 0 | 0.0 | 0.0 | 0.00 | 0.00 | 0.00 | 1008.2 | ||
| 20260905133029 | 0 | 0.0 | 0.0 | 0.00 | 0.00 | 0.00 | 1008.0 | ||
| 20260905131530 | 0 | 0.0 | 0.0 | 0.00 | 0.00 | 0.00 | 1007.9 | ||
| 20260905130035 | 0 | 0.0 | 0.0 | 0.00 | 0.00 | 0.00 | 1008.1 | ||
| 20260905124523 | 0 | 0.0 | 0.0 | 0.00 | 0.00 | 0.00 | 1008.1 | ||
| 20260905123016 | 0 | 0.0 | 0.0 | 0.00 | 0.00 | 0.00 | 1008.1 | ||
| 20260905121510 | 0 | 0.0 | 0.0 | 0.00 | 0.00 | 0.00 | 1008.2 | ||
| 20260905120006 | 0 | 0.0 | 0.0 | 0.00 | 0.00 | 0.00 | 1008.5 | ||
| 20260905114504 | 45 | 277 | 5.0 | 16.0 | 0.00 | 0.00 | 0.00 | 58 | 1008.7 |
| 20260905113003 | 46 | 263 | 7.0 | 26.0 | 0.00 | 0.00 | 0.00 | 58 | 1008.7 |
| 20260905111503 | 46 | 227 | 7.0 | 18.0 | 0.00 | 0.00 | 0.00 | 61 | 1008.6 |
| 20260905110003 | 46 | 256 | 5.0 | 24.0 | 0.00 | 0.00 | 0.00 | 61 | 1008.7 |
| 20260905104613 | 46 | 275 | 6.0 | 16.0 | 0.00 | 0.00 | 0.00 | 61 | 1008.5 |
| 20260905103100 | 46 | 214 | 6.0 | 15.0 | 0.00 | 0.00 | 0.00 | 59 | 1008.6 |
| 20260905101604 | 47 | 269 | 6.0 | 27.0 | 0.00 | 0.00 | 0.00 | 55 | 1008.7 |
| 20260905100105 | 47 | 317 | 5.0 | 15.0 | 0.00 | 0.00 | 0.00 | 57 | 1008.7 |
| 20260905094555 | 46 | 267 | 3.0 | 15.0 | 0.00 | 0.00 | 0.00 | 61 | 1008.7 |
| 20260905093054 | 46 | 271 | 6.0 | 14.0 | 0.00 | 0.00 | 0.00 | 63 | 1008.7 |
| 20260905091553 | 46 | 256 | 7.0 | 17.0 | 0.00 | 0.00 | 0.00 | 63 | 1008.8 |
| 20260905090114 | 46 | 273 | 6.0 | 22.0 | 0.00 | 0.00 | 0.00 | 62 | 1009.0 |
| 20260905084550 | 46 | 265 | 5.0 | 17.0 | 0.00 | 0.00 | 0.00 | 66 | 1009.0 |
| 20260905083047 | 46 | 282 | 6.0 | 19.0 | 0.00 | 0.00 | 0.00 | 67 | 1008.8 |
| 20260905081546 | 46 | 168 | 6.0 | 20.0 | 0.00 | 0.00 | 0.00 | 70 | 1009.0 |
| 20260905080044 | 45 | 275 | 8.0 | 23.0 | 0.00 | 0.00 | 0.00 | 73 | 1009.0 |
| 20260905074545 | 46 | 215 | 6.0 | 16.0 | 0.00 | 0.00 | 0.00 | 73 | 1009.1 |
| 20260905073045 | 46 | 267 | 6.0 | 19.0 | 0.00 | 0.00 | 0.00 | 72 | 1009.1 |
| 20260905071539 | 46 | 242 | 5.0 | 17.0 | 0.00 | 0.00 | 0.00 | 73 | 1009.1 |
| 20260905070046 | 46 | 252 | 5.0 | 23.0 | 0.00 | 0.00 | 0.00 | 72 | 1009.0 |
| 20260905064539 | 46 | 249 | 6.0 | 19.0 | 0.00 | 0.00 | 0.00 | 71 | 1008.7 |
| 20260905063037 | 46 | 292 | 6.0 | 19.0 | 0.00 | 0.00 | 0.00 | 72 | 1008.6 |
| 20260905061541 | 46 | 305 | 6.0 | 17.0 | 0.00 | 0.00 | 0.00 | 73 | 1008.6 |
| 20260905060037 | 46 | 288 | 8.0 | 22.0 | 0.00 | 0.00 | 0.00 | 71 | 1008.6 |
| 20260905054538 | 46 | 284 | 9.0 | 25.0 | 0.00 | 0.00 | 0.00 | 71 | 1008.7 |
| 20260905053035 | 46 | 15 | 4.0 | 19.0 | 0.00 | 0.00 | 0.00 | 74 | 1008.7 |
| 20260905051534 | 46 | 286 | 6.0 | 21.0 | 0.00 | 0.00 | 0.00 | 73 | 1008.5 |
| 20260905050033 | 47 | 272 | 9.0 | 18.0 | 0.00 | 0.00 | 0.00 | 73 | 1008.5 |
| 20260905044533 | 47 | 280 | 5.0 | 20.0 | 0.00 | 0.00 | 0.00 | 74 | 1008.4 |
| 20260905043031 | 47 | 198 | 6.0 | 20.0 | 0.00 | 0.00 | 0.00 | 74 | 1008.3 |
| 20260905041546 | 47 | 309 | 10.0 | 19.0 | 0.00 | 0.00 | 0.00 | 74 | 1008.1 |
| 20260905040031 | 48 | 267 | 5.0 | 20.0 | 0.00 | 0.00 | 0.00 | 72 | 1007.8 |
| 20260905034529 | 48 | 242 | 8.0 | 23.0 | 0.00 | 0.00 | 0.00 | 72 | 1007.6 |
| 20260905033028 | 48 | 303 | 6.0 | 18.0 | 0.00 | 0.00 | 0.00 | 72 | 1007.6 |
| 20260905031527 | 48 | 260 | 4.0 | 14.0 | 0.00 | 0.00 | 0.00 | 75 | 1007.5 |
| 20260905030026 | 48 | 275 | 5.0 | 20.0 | 0.00 | 0.00 | 0.00 | 75 | 1007.3 |
| 20260905024530 | 48 | 277 | 4.0 | 14.0 | 0.00 | 0.00 | 0.00 | 76 | 1007.2 |
| 20260905023024 | 49 | 277 | 3.0 | 20.0 | 0.00 | 0.00 | 0.00 | 73 | 1006.9 |
| 20260905021531 | 49 | 248 | 7.0 | 14.0 | 0.00 | 0.00 | 0.00 | 74 | 1007.2 |
| 20260905020025 | 49 | 304 | 5.0 | 16.0 | 0.00 | 0.00 | 0.00 | 74 | 1007.1 |
| 20260905014524 | 50 | 229 | 7.0 | 19.0 | 0.00 | 0.00 | 0.00 | 72 | 1007.2 |
| 20260905013024 | 51 | 199 | 5.0 | 15.0 | 0.00 | 0.00 | 0.00 | 70 | 1007.2 |
| 20260905011523 | 51 | 202 | 8.0 | 17.0 | 0.00 | 0.00 | 0.00 | 68 | 1007.2 |
| 20260905010021 | 53 | 289 | 5.0 | 12.0 | 0.00 | 0.00 | 0.00 | 65 | 1007.2 |
| 20260905004521 | 53 | 277 | 4.0 | 15.0 | 0.00 | 0.00 | 0.00 | 65 | 1007.0 |
| 20260905003021 | 55 | 234 | 5.0 | 23.0 | 0.00 | 0.00 | 0.00 | 62 | 1006.9 |
| 20260905001519 | 55 | 277 | 5.0 | 19.0 | 0.00 | 0.00 | 0.00 | 61 | 1006.9 |
| 20260905000019 | 56 | 278 | 5.0 | 17.0 | 0.00 | 0.00 | 0.00 | 60 | 1006.8 |
| 20260904234520 | 56 | 283 | 5.0 | 20.0 | 0.00 | 0.00 | 0.00 | 59 | 1007.0 |
| 20260904233018 | 56 | 202 | 8.0 | 20.0 | 0.00 | 0.00 | 0.00 | 57 | 1006.8 |
| 20260904231518 | 57 | 229 | 6.0 | 18.0 | 0.00 | 0.00 | 0.00 | 56 | 1006.7 |
| 20260904230019 | 58 | 232 | 4.0 | 22.0 | 0.00 | 0.00 | 0.00 | 55 | 1006.8 |
| 20260904224517 | 58 | 271 | 5.0 | 19.0 | 0.00 | 0.00 | 0.00 | 54 | 1006.8 |
| 20260904223017 | 58 | 250 | 5.0 | 14.0 | 0.00 | 0.00 | 0.00 | 54 | 1006.8 |
| 20260904221519 | 57 | 232 | 10.0 | 23.0 | 0.00 | 0.00 | 0.00 | 54 | 1007.0 |
| 20260904220018 | 58 | 258 | 10.0 | 23.0 | 0.00 | 0.00 | 0.00 | 52 | 1006.9 |
| 20260904214518 | 58 | 214 | 4.0 | 12.0 | 0.00 | 0.00 | 0.00 | 53 | 1006.8 |
| 20260904213017 | 57 | 260 | 10.0 | 30.0 | 0.00 | 0.00 | 0.00 | 51 | 1006.9 |
| 20260904211514 | 58 | 237 | 7.0 | 27.0 | 0.00 | 0.00 | 0.00 | 51 | 1006.7 |
| 20260904210016 | 58 | 157 | 4.0 | 16.0 | 0.00 | 0.00 | 0.00 | 49 | 1006.4 |
| 20260904204517 | 58 | 166 | 6.0 | 14.0 | 0.00 | 0.00 | 0.00 | 48 | 1006.1 |
| 20260904203018 | 58 | 214 | 6.0 | 20.0 | 0.00 | 0.00 | 0.00 | 49 | 1006.3 |
| 20260904201512 | 58 | 259 | 7.0 | 24.0 | 0.00 | 0.00 | 0.00 | 48 | 1006.2 |
| 20260904200012 | 58 | 302 | 3.0 | 18.0 | 0.00 | 0.00 | 0.00 | 50 | 1006.2 |
| 20260904194511 | 58 | 269 | 8.0 | 18.0 | 0.00 | 0.00 | 0.00 | 47 | 1006.1 |
| 20260904193011 | 58 | 132 | 3.0 | 22.0 | 0.00 | 0.00 | 0.00 | 50 | 1006.1 |
| 20260904191509 | 58 | 219 | 4.0 | 16.0 | 0.00 | 0.00 | 0.00 | 47 | 1006.0 |
| 20260904190009 | 57 | 294 | 9.0 | 21.0 | 0.00 | 0.00 | 0.00 | 47 | 1006.0 |
| 20260904184517 | 57 | 267 | 4.0 | 19.0 | 0.00 | 0.00 | 0.00 | 48 | 1006.1 |
| 20260904183006 | 56 | 290 | 9.0 | 23.0 | 0.00 | 0.00 | 0.00 | 49 | 1006.1 |
| 20260904181517 | 56 | 206 | 7.0 | 19.0 | 0.00 | 0.00 | 0.00 | 49 | 1006.0 |
| 20260904180002 | 56 | 260 | 4.0 | 20.0 | 0.00 | 0.00 | 0.00 | 51 | 1005.9 |
| 20260904174502 | 56 | 259 | 9.0 | 20.0 | 0.00 | 0.00 | 0.00 | 48 | 1005.7 |
| 20260904173001 | 56 | 227 | 5.0 | 15.0 | 0.00 | 0.00 | 0.00 | 49 | 1005.7 |
| 20260904171620 | 55 | 271 | 6.0 | 20.0 | 0.00 | 0.00 | 0.00 | 45 | 1005.7 |
| 20260904171501 | 55 | 244 | 7.0 | 20.0 | 0.00 | 0.00 | 0.00 | 48 | 1005.6 |
| 20260904170058 | 55 | 253 | 3.0 | 35.0 | 0.00 | 0.00 | 0.00 | 43 | 1005.3 |
| 20260904164614 | 53 | 269 | 9.0 | 29.0 | 0.00 | 0.00 | 0.00 | 48 | 1005.5 |
| 20260904163054 | 53 | 245 | 6.0 | 19.0 | 0.00 | 0.00 | 0.00 | 50 | 1005.5 |
| 20260904161559 | 52 | 275 | 9.0 | 25.0 | 0.00 | 0.00 | 0.00 | 56 | 1005.6 |
| 20260904160051 | 50 | 232 | 8.0 | 18.0 | 0.00 | 0.00 | 0.00 | 56 | 1005.4 |
| 20260904154551 | 49 | 259 | 5.0 | 20.0 | 0.00 | 0.00 | 0.00 | 63 | 1005.6 |
| 20260904153055 | 48 | 252 | 5.0 | 21.0 | 0.00 | 0.00 | 0.00 | 64 | 1005.4 |
| 20260904151549 | 48 | 183 | 10.0 | 31.0 | 0.00 | 0.00 | 0.00 | 65 | 1005.5 |
| 20260904150045 | 47 | 275 | 9.0 | 25.0 | 0.00 | 0.00 | 0.00 | 65 | 1005.2 |